Powrót do katalogu

OPS 4682 DEB

AktywnyPO
NORAD 38439·DEBRIS·🇺🇸 United States

Wystrzelony Apr 3, 1965 z Vandenberg Space Force Base

Loading…

Następne Przeloty (najbliższe 24 godziny)

TLE

ŚwieżeSource: Space-Track

Epoka: Sep 13, 2026, 20:05 UTC

1 38439U 65027EU  26256.83708661  .00000682  00000-0  22343-2 0  9999
2 38439  90.3091  38.4135 0037696 158.3821 201.8903 12.99998255676308

Śledź OPS 4682 DEB w czasie rzeczywistym z AllMySat

Download on the App Store